DateTimeUTC,F1_A11,F1_S11,BsB_S11,BsG_S11,BsR_S11,BbsB_S11,BbsG_S11,BbsR_S11,BaB_A11,BaG_A11,BaR_A11,Tu_S11,T_S11,Uu_S11,U_S11,P_S11,T1_A11
2021-05-15T09:00:00Z,00040200,21000000,,,,,,,0001.19,0000.39,0000.70,15.1,22.1,,00.0,0674.2,30.8
2021-05-15T09:01:00Z,00040200,21000000,,,,,,,-000.57,-000.08,-000.31,15.1,22.1,,00.0,0674.2,30.8
2021-05-15T09:02:00Z,00040200,21000000,,,,,,,-000.85,-000.81,-000.96,15.1,22.2,00.3,00.2,0674.2,30.8
2021-05-15T09:03:00Z,00040200,61000000,,,,,,,-000.87,-001.08,-001.08,15.1,22.2,00.3,00.2,0674.2,30.8
2021-05-15T09:04:00Z,00040200,41000000,0001.15,0001.13,0000.39,0000.51,0000.23,0000.22,0000.76,0001.05,0001.44,15.3,22.0,00.2,00.1,0675.1,30.8
2021-05-15T09:05:00Z,00040200,01000000,0000.32,0000.38,0000.08,-000.03,0000.00,0000.12,-000.59,-000.43,-000.73,15.3,21.9,00.2,00.2,0675.2,30.8
2021-05-15T09:06:00Z,00040200,01000000,0000.53,0000.04,0000.12,-000.12,-000.06,0000.04,0000.02,-000.47,-000.25,15.2,21.9,00.1,00.1,0675.2,30.7
2021-05-15T09:07:00Z,00040200,01000000,0001.13,0000.41,0000.14,0000.51,-000.04,0000.02,0001.37,0001.29,0001.12,15.2,21.9,00.1,00.1,0675.2,30.7
2021-05-15T09:08:00Z,00040200,01000000,0001.82,0001.15,0000.60,0000.20,0000.27,0000.18,0001.00,0001.01,0000.60,15.2,21.8,00.3,00.2,0675.2,30.7
2021-05-15T09:09:00Z,00040200,01000000,0000.85,0000.47,0000.02,-000.06,0000.26,-000.05,0000.27,-000.15,-000.10,15.1,21.8,00.5,00.3,0675.2,30.7
2021-05-15T09:10:00Z,00040200,01000000,0000.29,0000.60,0000.18,0000.04,0000.08,0000.20,0000.29,0000.71,0000.48,15.1,21.8,00.4,00.3,0675.2,30.7
2021-05-15T09:11:00Z,00040200,01000000,0000.16,0000.01,0000.32,-000.59,0000.19,0000.15,-001.04,-000.97,-000.25,15.2,21.8,00.6,00.4,0675.2,30.7
2021-05-15T09:12:00Z,00040200,01000000,0000.67,0000.26,0000.01,0000.09,0000.10,-000.05,0000.63,0000.54,0000.10,15.2,21.8,00.3,00.2,0675.2,30.8
2021-05-15T09:13:00Z,00040200,01000000,0000.18,0000.17,0000.01,0000.14,0000.25,0000.06,-000.70,-000.56,-000.36,15.3,21.8,00.4,00.3,0675.2,30.8
2021-05-15T09:14:00Z,00040200,01000000,0000.62,0000.29,-000.18,0000.11,0000.44,0000.17,-000.13,0000.16,-000.05,15.3,21.9,00.2,00.1,0675.2,30.8
2021-05-15T09:15:00Z,00040200,01000000,-000.01,0000.18,0000.11,-000.24,0000.09,0000.12,0000.55,0000.29,0000.23,15.3,21.8,00.3,00.2,0675.2,30.8
2021-05-15T09:16:00Z,00040200,01000000,0002.14,0001.17,0000.59,0000.31,0000.16,0000.31,0001.09,0001.18,0001.12,15.3,21.8,00.4,00.2,0675.2,30.8
2021-05-15T09:17:00Z,00040200,01000000,0002.15,0001.72,0001.00,-000.01,0000.42,0000.34,0001.70,0001.18,0000.69,15.3,21.8,00.6,00.4,0675.2,30.8
2021-05-15T09:18:00Z,00040200,01000000,0001.12,0000.74,0000.55,-000.35,0000.09,0000.45,0000.44,0000.56,0000.70,15.2,21.8,00.8,00.6,0675.2,30.7
2021-05-15T09:19:00Z,00040200,01000000,0000.82,0000.23,0000.38,0000.61,0000.06,-000.00,-000.56,-000.55,-000.65,15.2,21.8,00.8,00.5,0675.2,30.7
2021-05-15T09:20:00Z,00040200,01000000,0001.66,0000.90,0000.41,-000.11,0000.19,0000.11,0000.67,0000.71,0000.67,15.1,21.8,00.6,00.4,0675.2,30.7
2021-05-15T09:21:00Z,00040200,01000000,0001.87,0001.54,0001.00,0000.49,0000.24,0000.23,0002.06,0001.79,0001.27,15.1,21.7,00.9,00.6,0675.2,30.7
2021-05-15T09:22:00Z,00040200,01000000,0002.15,0001.57,0001.16,0000.13,0000.31,0000.38,0001.46,0001.21,0001.09,15.1,21.7,01.3,00.8,0675.2,30.7
2021-05-15T09:23:00Z,00040200,01000000,0001.90,0001.58,0000.69,0000.21,0000.27,0000.20,0001.62,0001.38,0001.26,15.0,21.6,01.6,01.1,0675.2,30.7
2021-05-15T09:24:00Z,00040200,01000000,0001.21,0000.72,0000.43,0000.09,-000.02,0000.23,-000.54,-000.54,-000.79,15.0,21.6,01.6,01.0,0675.2,30.7
2021-05-15T09:25:00Z,00040200,01000000,0000.85,0000.20,0000.06,0000.13,-000.04,0000.14,-001.86,-001.60,-001.33,15.0,21.6,01.0,00.7,0675.2,30.7
2021-05-15T09:26:00Z,00040200,01000000,0000.14,0000.68,0000.03,-000.14,-000.06,0000.07,-000.55,-000.64,-000.40,15.0,21.6,00.5,00.4,0675.2,30.7
2021-05-15T09:27:00Z,00040200,01000000,0001.27,0000.46,0000.16,-000.24,0000.17,-000.06,-000.23,0000.10,-000.17,15.1,21.6,00.4,00.3,0675.2,30.8
2021-05-15T09:28:00Z,00040200,01000000,0001.38,0000.66,0000.33,-000.51,0000.08,0000.40,0001.35,0001.03,0001.20,15.1,21.7,00.5,00.3,0675.2,30.8
2021-05-15T09:29:00Z,00040200,01000000,0001.03,0000.55,0000.33,-000.11,-000.12,0000.08,0000.08,0000.24,0000.02,15.2,21.7,00.8,00.5,0675.2,30.8
2021-05-15T09:30:00Z,00040200,01000000,0001.18,0000.30,0000.21,-000.10,0000.03,0000.12,0001.01,0001.03,0000.82,15.3,21.7,00.7,00.5,0675.2,30.8
2021-05-15T09:31:00Z,00040200,01000000,0000.96,0000.59,0000.08,0000.19,-000.02,0000.01,0000.54,0000.50,0000.48,15.3,21.8,01.0,00.7,0675.2,30.8
2021-05-15T09:32:00Z,00040200,01000000,0000.86,0000.84,0000.40,0000.34,0000.12,0000.25,0001.77,0001.44,0001.30,15.3,21.8,01.2,00.8,0675.2,30.8
2021-05-15T09:33:00Z,00040200,01000000,0001.46,0001.06,0000.26,-000.08,0000.16,-000.15,-000.28,-000.50,-000.42,15.3,21.8,01.4,00.9,0675.2,30.8
2021-05-15T09:34:00Z,00040200,01000000,0000.57,0000.75,-000.00,0000.38,0000.03,0000.01,-000.77,-000.48,-000.80,15.3,21.7,01.1,00.7,0675.2,30.8
2021-05-15T09:35:00Z,00040200,01000000,0000.55,0000.33,-000.11,-000.14,-000.04,0000.06,-001.07,-000.91,-000.26,15.2,21.7,00.8,00.5,0675.2,30.7
2021-05-15T09:36:00Z,00040200,01000000,0000.51,0000.20,-000.08,-000.25,-000.05,0000.10,-000.50,-000.68,-000.82,15.2,21.7,00.6,00.4,0675.2,30.7
2021-05-15T09:37:00Z,00040200,01000000,0000.58,0000.39,0000.10,-000.02,-000.25,0000.02,-000.44,-000.28,-000.10,15.1,21.7,00.3,00.2,0675.2,30.7
2021-05-15T09:38:00Z,00040200,01000000,0000.25,0000.28,0000.04,-000.41,-000.02,0000.11,0000.60,-000.04,0000.46,15.1,21.7,00.3,00.2,0675.2,30.7
2021-05-15T09:39:00Z,00040200,01000000,0001.09,0000.44,0000.04,0000.34,0000.34,-000.14,-000.45,0000.06,-000.55,15.1,21.6,00.3,00.2,0675.2,30.7
2021-05-15T09:40:00Z,00040200,01000000,-000.09,0000.22,0000.18,0000.28,0000.05,0000.10,-000.24,0000.03,-000.16,15.1,21.6,00.3,00.2,0675.2,30.7
2021-05-15T09:41:00Z,00040200,01000000,-000.02,0000.34,-000.15,0000.04,-000.01,0000.02,0000.08,0000.02,0000.40,15.1,21.6,00.3,00.2,0675.2,30.7
2021-05-15T09:42:00Z,00040200,01000000,0000.33,0000.49,0000.41,0000.12,0000.25,0000.20,0000.88,0001.01,0000.15,15.2,21.7,00.4,00.2,0675.2,30.8
2021-05-15T09:43:00Z,00040200,01000000,0000.10,0000.38,-000.14,0000.01,0000.10,0000.36,0000.85,0000.25,0000.87,15.2,21.7,00.5,00.3,0675.2,30.8
2021-05-15T09:44:00Z,00040200,01000000,0000.97,0000.43,0000.08,-000.22,0000.06,0000.13,0000.57,0000.78,0000.33,15.3,21.7,00.6,00.4,0675.2,30.8
2021-05-15T09:45:00Z,00040200,01000000,0000.58,0000.82,0000.48,-000.22,0000.11,0000.06,0000.35,0000.64,0000.61,15.4,21.7,00.7,00.5,0675.2,30.8
2021-05-15T09:46:00Z,00040200,01000000,0001.33,0000.97,0000.51,-000.02,-000.09,0000.34,0001.56,0001.17,0000.97,15.4,21.8,00.9,00.6,0675.2,30.8
2021-05-15T09:47:00Z,00040200,01000000,0001.23,0000.33,0000.27,0000.64,0000.25,-000.04,0001.14,0001.00,0000.76,15.4,21.8,01.3,00.8,0675.2,30.8
2021-05-15T09:48:00Z,00040200,01000000,0001.13,0000.51,0000.18,-000.33,0000.19,0000.09,0000.45,0000.11,0000.66,15.4,21.8,01.6,01.0,0675.2,30.8
2021-05-15T09:49:00Z,00040200,01000000,0001.16,0000.74,0000.37,-000.07,-000.03,0000.04,-000.12,0000.24,-000.42,15.4,21.8,01.5,01.0,0675.2,30.8
2021-05-15T09:50:00Z,00040200,01000000,0001.52,0001.03,0000.32,0000.19,0000.04,0000.14,0000.59,0000.17,0000.20,15.3,21.7,01.5,01.0,0675.1,30.8
2021-05-15T09:51:00Z,00040200,01000000,0000.88,0000.63,0000.39,0000.36,0000.28,0000.06,-000.25,0000.23,-000.20,15.3,21.7,01.5,01.0,0675.1,30.7
2021-05-15T09:52:00Z,00040200,01000000,0001.07,0000.46,0000.40,0000.34,0000.07,0000.13,0001.21,0000.92,0001.11,15.2,21.7,01.4,01.0,0675.1,30.7
2021-05-15T09:53:00Z,00040200,01000000,0000.79,0000.99,0000.56,0000.63,-000.01,0000.14,0001.92,0001.63,0001.37,15.2,21.7,01.8,01.2,0675.1,30.7
2021-05-15T09:54:00Z,00040200,00000000,0001.79,0000.82,0000.29,0000.21,0000.07,-000.01,0000.81,0001.02,0000.82,15.2,21.6,02.2,01.4,0675.1,30.7
2021-05-15T09:55:00Z,00040200,00000000,0001.42,0001.03,0000.52,-000.41,0000.20,0000.07,0000.75,0000.37,0000.54,15.2,21.6,02.3,01.5,0675.1,30.7
2021-05-15T09:56:00Z,00040200,00000000,0001.38,0001.18,0000.44,0000.06,0000.21,-000.11,0000.23,0000.38,-000.10,15.2,21.7,02.3,01.5,0675.1,30.8
2021-05-15T09:57:00Z,00040200,40000000,,,,,,,-002.21,-001.73,-001.50,15.3,21.7,02.5,01.7,0675.2,30.8
2021-05-15T09:58:00Z,00040200,61000000,,,,,,,-000.44,-000.70,-000.19,15.1,21.9,01.3,00.9,0674.1,30.8
2021-05-15T09:59:00Z,00040200,21000000,,,,,,,-000.76,-000.48,-000.73,15.1,22.0,01.2,00.8,0674.1,30.8
